Home > Weather > Onex > Past weeks

Flag for Switzerland Past Weather in Onex, Geneva, Switzerland — Yesterday and Last 2 Weeks

Now
70 °F

Passing clouds.


Feels Like: 70 °F
Forecast: 63 / 79 °F
Wind: 2 mph from North

Location: Geneva Cointrin Airport

Current Time: Jul 25, 2016 at 12:29:41 AM

Latest Report: Jul 24, 2016 at 11:50 PM


Visibility: N/A

Pressure: 30.15 "Hg

Humidity: 78%

Dew Point: 63 °F

Location of OnexLocation

Past Weather in Onex — Graph

°F

Onex Temperature Yesterday

Maximum temperature yesterday: 81 °F (at 5:20 PM)
Minimum temperature yesterday: 59 °F (at 6:20 AM)
Average temperature yesterday: 70 °F

High & Low Weather Summary for the Past Weeks

 TemperatureHumidityPressure
High91 °F (Jul 10, 4:20 PM)100% (Jul 12, 2:20 AM)30.30 "Hg (Jul 12, 2:20 AM)
Low46 °F (Jul 15, 2:50 AM)22% (Jul 19, 6:20 PM)29.92 "Hg (Jul 11, 6:20 PM)
Average69 °F68%30.10 "Hg
* Reported Jul 9 11:20 PM — Jul 24 11:20 PM, Onex, Weather by CustomWeather, © 2016

Note: Actual official high and low records may vary slightly from our data, if they occured in-between our weather recording intervals... More about our weather records

Advertising

Onex Weather History for the Previous 24 Hours

Scroll right to see more
 ConditionsComfort  
Time TempWeatherWind HumidityBarometerVisibility
11:20 PM
Sun, Jul 24
70 °FPassing clouds.5 mph78%30.12 "HgN/A
10:50 PM72 °FPassing clouds.3 mph69%30.12 "HgN/A
10:20 PM72 °FPassing clouds.3 mph69%30.12 "HgN/A
9:50 PM72 °FScattered clouds.5 mph69%30.12 "HgN/A
9:20 PM73 °FScattered clouds.3 mph65%30.09 "HgN/A
8:50 PM73 °FScattered clouds.3 mph65%30.09 "HgN/A
8:20 PM75 °FScattered clouds.5 mph61%30.09 "HgN/A
7:50 PM75 °FPassing clouds.5 mph57%30.09 "HgN/A
7:20 PM79 °FPassing clouds.3 mph54%30.07 "HgN/A
6:50 PM79 °FScattered clouds.6 mph54%30.07 "HgN/A
6:20 PM79 °FScattered clouds.6 mph54%30.07 "HgN/A
5:50 PM81 °FScattered clouds.7 mph51%30.07 "HgN/A
5:20 PM81 °FPassing clouds.5 mph54%30.09 "HgN/A
4:50 PM77 °FPassing clouds.7 mph54%30.09 "HgN/A
4:20 PM79 °FPassing clouds.6 mph54%30.09 "HgN/A
3:50 PM79 °FPassing clouds.6 mph58%30.09 "HgN/A
3:20 PM79 °FPassing clouds.3 mph54%30.09 "HgN/A
2:50 PM79 °FPassing clouds.6 mph58%30.12 "HgN/A
2:20 PM79 °FPassing clouds.5 mph58%30.12 "HgN/A
1:50 PM77 °FPassing clouds.6 mph54%30.12 "HgN/A
1:20 PM75 °FPassing clouds.8 mph61%30.12 "HgN/A
12:50 PM75 °FPassing clouds.8 mph61%30.12 "HgN/A
12:20 PM75 °FPassing clouds.6 mph65%30.12 "HgN/A
11:50 AM73 °FPassing clouds.5 mph69%30.12 "HgN/A
11:20 AM73 °FPassing clouds.5 mph69%30.12 "HgN/A
10:50 AM72 °FPassing clouds.3 mph73%30.12 "HgN/A
10:20 AM68 °FPassing clouds.3 mph88%30.12 "HgN/A
9:50 AM68 °FScattered clouds.2 mph88%30.12 "HgN/A
9:20 AM68 °FPartly sunny.1 mph83%30.12 "HgN/A
8:50 AM66 °FPartly sunny.2 mph88%30.12 "HgN/A
8:20 AM64 °FBroken clouds.1 mph94%30.12 "HgN/A
7:50 AM63 °FPartly sunny.1 mph94%30.12 "HgN/A
7:20 AM61 °FPartly sunny.2 mph94%30.12 "HgN/A
6:50 AM59 °FFog.2 mph100%30.12 "HgN/A
6:20 AM59 °FFog.2 mph100%30.12 "Hg6 mi
5:50 AM61 °FFog.2 mph94%30.12 "HgN/A
5:20 AM61 °FFog.2 mph100%30.12 "HgN/A
4:50 AM61 °FFog.1 mph100%30.12 "HgN/A
4:20 AM61 °FFog.1 mph100%30.12 "HgN/A
3:50 AM61 °FFog.1 mph100%30.12 "HgN/A
2:50 AM63 °FPassing clouds.1 mph94%30.12 "HgN/A
2:20 AM63 °FPassing clouds.2 mph100%30.12 "HgN/A
1:50 AM63 °FPassing clouds.2 mph100%30.15 "HgN/A
1:20 AM64 °FPassing clouds.1 mph94%30.15 "HgN/A
12:50 AM64 °FPassing clouds.3 mph94%30.15 "HgN/A
12:20 AM64 °FPartly cloudy.3 mph100%30.15 "HgN/A
Weather by CustomWeather, © 2016

See weather overviewHow to use our weather pages